TOW2232 FHAW-EGYP

Flight info

Callsign TOW2232
Flight time 7h 45m
Altitude 38000
Route ASI DCT 10S015W DCT 15S018W DCT TEKIR DCT 25S025W 31S030W/N0453F400 36S035W 41S040W 45S045W 48S050W DCT FF28 DCT MTP
Aircraft A332/H-SDE3GHIJ2J3J5M1RVWXY/LB2D1

Departure

Time 2026-05-08 07:38
Airport RAF Ascension Island (FHAW)

Arrival

Time 2026-05-08 15:24
Airport Mount Pleasant Airport / RAF Mount Pleasant (EGYP)
Time Latitude Longitude Altitude Speed Heading
2026-05-08 07:31 -7.96857 -14.40397 284 ft 0 kts 60°
2026-05-08 07:35 -7.96843 -14.40385 284 ft 3 kts 33°
2026-05-08 07:35 -7.96817 -14.40380 284 ft 5 kts
2026-05-08 07:36 -7.96774 -14.40383 283 ft 8 kts 357°
2026-05-08 07:36 -7.96711 -14.40386 283 ft 11 kts 357°
2026-05-08 07:36 -7.96629 -14.40393 282 ft 13 kts 345°
2026-05-08 07:36 -7.96556 -14.40455 281 ft 15 kts 316°
2026-05-08 07:37 -7.96469 -14.40537 278 ft 19 kts 317°
2026-05-08 07:37 -7.96378 -14.40573 278 ft 12 kts 37°
2026-05-08 07:37 -7.96383 -14.40514 279 ft 0 kts 118°
2026-05-08 07:37 -7.96400 -14.40481 280 ft 23 kts 118°
2026-05-08 07:38 -7.96555 -14.40166 285 ft 77 kts 116°
2026-05-08 07:38 -7.96876 -14.39535 284 ft 125 kts 117°
2026-05-08 07:38 -7.97337 -14.38638 457 ft 154 kts 120°
2026-05-08 07:38 -7.97850 -14.37668 1027 ft 156 kts 117°
2026-05-08 07:39 -7.98365 -14.36752 1801 ft 149 kts 125°
2026-05-08 07:39 -7.99245 -14.36132 2082 ft 173 kts 160°
2026-05-08 07:39 -8.00503 -14.36010 2552 ft 187 kts 175°
2026-05-08 07:39 -8.01841 -14.36069 3030 ft 201 kts 183°
2026-05-08 07:40 -8.03302 -14.36360 3247 ft 228 kts 189°
2026-05-08 07:40 -8.04925 -14.36778 3448 ft 253 kts 193°
2026-05-08 07:40 -8.06646 -14.37301 4000 ft 261 kts 194°
2026-05-08 07:40 -8.08382 -14.37871 4647 ft 266 kts 196°
2026-05-08 07:41 -8.10163 -14.38468 5245 ft 272 kts 198°
2026-05-08 07:41 -8.11966 -14.39074 5940 ft 275 kts 198°
2026-05-08 07:41 -8.13796 -14.39684 6608 ft 279 kts 198°
2026-05-08 07:41 -8.15649 -14.40293 7265 ft 282 kts 199°
2026-05-08 07:42 -8.17527 -14.40905 7952 ft 285 kts 199°
2026-05-08 07:42 -8.19423 -14.41519 8648 ft 288 kts 199°
2026-05-08 07:42 -8.21338 -14.42137 9329 ft 291 kts 200°
2026-05-08 07:42 -8.23277 -14.42761 10023 ft 294 kts 200°
2026-05-08 07:43 -8.25267 -14.43404 10386 ft 309 kts 201°
2026-05-08 07:43 -8.27376 -14.44088 10615 ft 327 kts 200°
2026-05-08 07:43 -8.29598 -14.44806 10845 ft 344 kts 200°
2026-05-08 07:43 -8.31917 -14.45555 11205 ft 354 kts 198°
2026-05-08 07:44 -8.34282 -14.46314 11759 ft 359 kts 198°
2026-05-08 07:44 -8.36677 -14.47083 12316 ft 362 kts 198°
2026-05-08 07:44 -8.39087 -14.47857 12916 ft 365 kts 197°
2026-05-08 07:44 -8.41520 -14.48639 13492 ft 368 kts 197°
2026-05-08 07:45 -8.43972 -14.49429 14013 ft 372 kts 197°
2026-05-08 07:45 -8.46443 -14.50225 14529 ft 374 kts 197°
2026-05-08 07:45 -8.48931 -14.51028 15052 ft 377 kts 197°
2026-05-08 07:45 -8.51424 -14.51842 15423 ft 375 kts 198°
2026-05-08 07:46 -8.53907 -14.52697 15397 ft 378 kts 199°
2026-05-08 07:46 -8.56402 -14.53564 15390 ft 380 kts 198°
2026-05-08 07:46 -8.58905 -14.54419 15416 ft 380 kts 198°
2026-05-08 07:46 -8.61416 -14.55255 15446 ft 381 kts 197°
2026-05-08 07:47 -8.63938 -14.56078 15463 ft 381 kts 197°
2026-05-08 07:47 -8.66464 -14.56890 15518 ft 381 kts 197°
2026-05-08 07:47 -8.68993 -14.57697 15558 ft 381 kts 197°
2026-05-08 07:47 -8.71523 -14.58502 15562 ft 382 kts 197°
2026-05-08 07:48 -8.74056 -14.59307 15595 ft 382 kts 197°
2026-05-08 07:48 -8.76594 -14.60115 15628 ft 382 kts 196°
2026-05-08 07:48 -8.79127 -14.60922 15681 ft 382 kts 196°
2026-05-08 07:48 -8.81664 -14.61730 15755 ft 382 kts 196°
2026-05-08 07:49 -8.84196 -14.62534 15806 ft 382 kts 196°
2026-05-08 07:49 -8.86692 -14.63339 15838 ft 382 kts 198°
2026-05-08 07:49 -8.89249 -14.64193 15886 ft 381 kts 198°
2026-05-08 07:49 -8.91792 -14.65027 16161 ft 387 kts 197°
2026-05-08 07:50 -8.94367 -14.65825 16749 ft 387 kts 197°
2026-05-08 07:50 -8.96946 -14.66617 17320 ft 388 kts 197°
2026-05-08 07:50 -8.99528 -14.67417 17875 ft 389 kts 197°
2026-05-08 07:50 -9.02087 -14.68223 18336 ft 392 kts 197°
2026-05-08 07:51 -9.04733 -14.69067 18734 ft 395 kts 197°
2026-05-08 07:51 -9.07362 -14.69913 19163 ft 397 kts 197°
2026-05-08 07:51 -9.09962 -14.70755 19613 ft 398 kts 197°
2026-05-08 07:51 -9.12605 -14.71612 20005 ft 401 kts 197°
2026-05-08 07:52 -9.15278 -14.72479 20346 ft 405 kts 197°
2026-05-08 07:52 -9.17961 -14.73350 20824 ft 405 kts 197°
2026-05-08 07:52 -9.20641 -14.74219 21277 ft 405 kts 197°
2026-05-08 07:52 -9.23338 -14.75094 21639 ft 409 kts 197°
2026-05-08 07:53 -9.26057 -14.75975 21940 ft 413 kts 197°
2026-05-08 07:53 -9.28796 -14.76863 22374 ft 414 kts 196°
2026-05-08 07:53 -9.31537 -14.77752 22826 ft 415 kts 196°
2026-05-08 07:53 -9.34302 -14.78648 23106 ft 419 kts 197°
2026-05-08 07:54 -9.37094 -14.79553 23460 ft 422 kts 197°
2026-05-08 07:54 -9.39891 -14.80460 23816 ft 422 kts 196°
2026-05-08 07:54 -9.42698 -14.81370 24074 ft 426 kts 197°
2026-05-08 07:54 -9.45531 -14.82289 24283 ft 431 kts 196°
2026-05-08 07:55 -9.48398 -14.83220 24602 ft 432 kts 196°
2026-05-08 07:55 -9.51262 -14.84150 24920 ft 433 kts 196°
2026-05-08 07:55 -9.54145 -14.85086 25161 ft 437 kts 197°
2026-05-08 07:55 -9.57052 -14.86030 25418 ft 440 kts 196°
2026-05-08 07:56 -9.59974 -14.86980 25742 ft 441 kts 196°
2026-05-08 07:56 -9.62907 -14.87932 26011 ft 444 kts 197°
2026-05-08 07:56 -9.65860 -14.88892 26265 ft 447 kts 195°
2026-05-08 07:56 -9.68831 -14.89857 26548 ft 449 kts 195°
2026-05-08 07:57 -9.71812 -14.90826 26844 ft 451 kts 197°
2026-05-08 07:57 -9.74816 -14.91802 27101 ft 454 kts 196°
2026-05-08 07:57 -9.77830 -14.92782 27380 ft 457 kts 195°
2026-05-08 07:57 -9.80860 -14.93768 27659 ft 459 kts 197°
2026-05-08 07:58 -9.83909 -14.94759 27951 ft 461 kts 197°
2026-05-08 07:58 -9.86968 -14.95755 28226 ft 463 kts 197°
2026-05-08 07:58 -9.90045 -14.96756 28471 ft 466 kts 197°
2026-05-08 07:58 -9.93136 -14.97762 28743 ft 468 kts 197°
2026-05-08 07:59 -9.96239 -14.98773 29006 ft 470 kts 197°
2026-05-08 07:59 -9.99330 -14.99906 29244 ft 474 kts 202°
2026-05-08 07:59 -10.02284 -15.01405 29515 ft 476 kts 207°
2026-05-08 07:59 -10.05198 -15.03018 29795 ft 478 kts 209°
2026-05-08 08:00 -10.08057 -15.04667 29989 ft 481 kts 209°
2026-05-08 08:00 -10.10959 -15.06376 30226 ft 483 kts 210°
2026-05-08 08:00 -10.13866 -15.08102 30457 ft 485 kts 210°
2026-05-08 08:00 -10.16823 -15.09859 30624 ft 488 kts 210°
2026-05-08 08:01 -10.19757 -15.11599 30882 ft 488 kts 210°
2026-05-08 08:01 -10.22700 -15.13338 31082 ft 491 kts 210°
2026-05-08 08:01 -10.25665 -15.15088 31236 ft 494 kts 210°
2026-05-08 08:01 -10.28592 -15.16812 31498 ft 494 kts 211°
2026-05-08 08:02 -10.31576 -15.18568 31668 ft 497 kts 211°
2026-05-08 08:02 -10.34568 -15.20330 31963 ft 496 kts 211°
2026-05-08 08:02 -10.37541 -15.22080 32335 ft 494 kts 212°
2026-05-08 08:02 -10.40519 -15.23833 32532 ft 496 kts 212°
2026-05-08 08:03 -10.43502 -15.25591 32889 ft 493 kts 212°
2026-05-08 08:03 -10.46465 -15.27337 33210 ft 493 kts 212°
2026-05-08 08:03 -10.49437 -15.29089 33441 ft 493 kts 211°
2026-05-08 08:03 -10.52393 -15.30832 33830 ft 491 kts 211°
2026-05-08 08:04 -10.55340 -15.32570 34093 ft 491 kts 211°
2026-05-08 08:04 -10.58292 -15.34310 34368 ft 489 kts 212°
2026-05-08 08:04 -10.61212 -15.36033 34679 ft 487 kts 212°
2026-05-08 08:04 -10.64143 -15.37762 34945 ft 486 kts 212°
2026-05-08 08:05 -10.67059 -15.39483 35222 ft 485 kts 212°
2026-05-08 08:05 -10.69971 -15.41203 35471 ft 484 kts 212°
2026-05-08 08:05 -10.72876 -15.42919 35715 ft 483 kts 212°
2026-05-08 08:05 -10.75783 -15.44636 35977 ft 482 kts 212°
2026-05-08 08:06 -10.78681 -15.46348 36221 ft 481 kts 212°
2026-05-08 08:06 -10.81573 -15.48057 36434 ft 480 kts 212°
2026-05-08 08:06 -10.83487 -15.49189 36600 ft 480 kts 212°
2026-05-08 08:06 -10.86370 -15.50893 36826 ft 479 kts 212°
2026-05-08 08:07 -10.89252 -15.52597 37051 ft 478 kts 212°
2026-05-08 08:07 -10.92122 -15.54295 37288 ft 477 kts 212°
2026-05-08 08:07 -10.94989 -15.55991 37493 ft 476 kts 212°
2026-05-08 08:07 -10.97855 -15.57687 37726 ft 475 kts 213°
2026-05-08 08:08 -11.00712 -15.59378 37925 ft 475 kts 213°
2026-05-08 08:08 -11.06426 -15.62761 38008 ft 474 kts 213°
2026-05-08 08:09 -11.12111 -15.66128 38006 ft 473 kts 213°
2026-05-08 08:09 -11.17803 -15.69501 38009 ft 474 kts 213°
2026-05-08 08:10 -11.23506 -15.72883 38002 ft 474 kts 213°
2026-05-08 08:10 -11.29162 -15.76238 38007 ft 474 kts 213°
2026-05-08 08:11 -11.34853 -15.79614 38005 ft 474 kts 213°
2026-05-08 08:11 -11.40548 -15.82996 38011 ft 474 kts 213°
2026-05-08 08:12 -11.46222 -15.86366 38005 ft 473 kts 213°
2026-05-08 08:12 -11.51937 -15.89762 38009 ft 474 kts 213°
2026-05-08 08:13 -11.57631 -15.93147 38007 ft 474 kts 213°
2026-05-08 08:13 -11.63321 -15.96531 38010 ft 473 kts 213°
2026-05-08 08:14 -11.69006 -15.99914 38009 ft 473 kts 213°
2026-05-08 08:14 -11.74703 -16.03307 38014 ft 474 kts 213°
2026-05-08 08:15 -11.80403 -16.06702 38010 ft 474 kts 213°
2026-05-08 08:15 -11.86108 -16.10102 38012 ft 474 kts 213°
2026-05-08 08:16 -11.91808 -16.13500 38022 ft 474 kts 213°
2026-05-08 08:16 -11.97502 -16.16897 38012 ft 475 kts 213°
2026-05-08 08:17 -12.03212 -16.20305 38011 ft 475 kts 213°
2026-05-08 08:17 -12.08917 -16.23712 38017 ft 475 kts 213°
2026-05-08 08:18 -12.14617 -16.27117 38022 ft 475 kts 213°
2026-05-08 08:18 -12.20327 -16.30530 38020 ft 475 kts 213°
2026-05-08 08:19 -12.26028 -16.33939 38018 ft 475 kts 213°
2026-05-08 08:19 -12.31733 -16.37353 38024 ft 477 kts 213°
2026-05-08 08:20 -12.37473 -16.40790 38015 ft 478 kts 213°
2026-05-08 08:20 -12.43206 -16.44224 38028 ft 478 kts 213°
2026-05-08 08:21 -12.48928 -16.47652 38028 ft 478 kts 213°
2026-05-08 08:21 -12.54678 -16.51099 38026 ft 478 kts 213°
2026-05-08 08:22 -12.60417 -16.54542 38027 ft 478 kts 213°
2026-05-08 08:22 -12.66149 -16.57982 38027 ft 478 kts 213°
2026-05-08 08:23 -12.71883 -16.61426 38028 ft 478 kts 213°
2026-05-08 08:23 -12.77616 -16.64870 38028 ft 478 kts 213°
2026-05-08 08:24 -12.83352 -16.68318 38035 ft 478 kts 213°
2026-05-08 08:24 -12.89081 -16.71764 38032 ft 478 kts 214°
2026-05-08 08:25 -12.94822 -16.75219 38041 ft 478 kts 214°
2026-05-08 08:25 -13.00547 -16.78666 38037 ft 478 kts 214°
2026-05-08 08:26 -13.06277 -16.82119 38035 ft 477 kts 214°
2026-05-08 08:26 -13.12005 -16.85571 38040 ft 477 kts 214°
2026-05-08 08:27 -13.17725 -16.89021 38039 ft 477 kts 214°
2026-05-08 08:27 -13.23452 -16.92477 38036 ft 477 kts 214°
2026-05-08 08:28 -13.29176 -16.95932 38044 ft 477 kts 214°
2026-05-08 08:28 -13.34899 -16.99390 38042 ft 477 kts 214°
2026-05-08 08:29 -13.40615 -17.02845 38046 ft 477 kts 214°
2026-05-08 08:29 -13.46329 -17.06301 38044 ft 477 kts 214°
2026-05-08 08:30 -13.52052 -17.09764 38048 ft 477 kts 214°
2026-05-08 08:30 -13.60634 -17.14961 38044 ft 478 kts 214°
2026-05-08 08:31 -13.66356 -17.18428 38039 ft 477 kts 215°
2026-05-08 08:31 -13.72076 -17.21896 38055 ft 477 kts 215°
2026-05-08 08:32 -13.77782 -17.25358 38047 ft 477 kts 215°
2026-05-08 08:32 -13.83484 -17.28819 38047 ft 477 kts 215°
2026-05-08 08:33 -13.89199 -17.32290 38061 ft 477 kts 215°
2026-05-08 08:33 -13.94906 -17.35758 38048 ft 477 kts 215°
2026-05-08 08:34 -14.00621 -17.39233 38056 ft 477 kts 215°
2026-05-08 08:34 -14.06331 -17.42707 38056 ft 477 kts 215°
2026-05-08 08:35 -14.12043 -17.46185 38069 ft 477 kts 215°
2026-05-08 08:35 -14.17765 -17.49670 38058 ft 477 kts 215°
2026-05-08 08:36 -14.23473 -17.53150 38058 ft 477 kts 215°
2026-05-08 08:36 -14.29209 -17.56647 38058 ft 477 kts 216°
2026-05-08 08:37 -14.34919 -17.60131 38060 ft 477 kts 216°
2026-05-08 08:37 -14.40635 -17.63622 38061 ft 477 kts 216°
2026-05-08 08:38 -14.46342 -17.67109 38062 ft 477 kts 216°
2026-05-08 08:38 -14.52093 -17.70625 38060 ft 477 kts 216°
2026-05-08 08:39 -14.57803 -17.74117 38064 ft 477 kts 216°
2026-05-08 08:39 -14.63511 -17.77611 38065 ft 477 kts 216°
2026-05-08 08:40 -14.69225 -17.81110 38067 ft 477 kts 216°
2026-05-08 08:40 -14.74936 -17.84610 38068 ft 477 kts 216°
2026-05-08 08:41 -14.80640 -17.88108 38067 ft 477 kts 216°
2026-05-08 08:41 -14.86361 -17.91618 38067 ft 477 kts 216°
2026-05-08 08:42 -14.92057 -17.95115 38080 ft 477 kts 216°
2026-05-08 08:42 -14.97759 -17.98617 38069 ft 476 kts 216°
2026-05-08 08:43 -15.03518 -18.02026 38073 ft 478 kts 214°
2026-05-08 08:43 -15.09385 -18.05275 38073 ft 478 kts 213°
2026-05-08 08:44 -15.14312 -18.07980 38072 ft 478 kts 213°
2026-05-08 08:44 -15.20177 -18.11222 38074 ft 478 kts 214°
2026-05-08 08:45 -15.25991 -18.14456 38076 ft 477 kts 214°
2026-05-08 08:45 -15.31871 -18.17735 38079 ft 476 kts 214°
2026-05-08 08:46 -15.37664 -18.20968 38075 ft 476 kts 214°
2026-05-08 08:46 -15.43502 -18.24228 38078 ft 476 kts 214°
2026-05-08 08:47 -15.49337 -18.27487 38078 ft 476 kts 214°
2026-05-08 08:47 -15.55172 -18.30749 38078 ft 476 kts 214°
2026-05-08 08:48 -15.60996 -18.34005 38080 ft 475 kts 214°
2026-05-08 08:48 -15.66804 -18.37254 38081 ft 474 kts 214°
2026-05-08 08:49 -15.72610 -18.40506 38080 ft 474 kts 214°
2026-05-08 08:49 -15.78406 -18.43755 38086 ft 474 kts 214°
2026-05-08 08:50 -15.84203 -18.47006 38083 ft 473 kts 214°
2026-05-08 08:50 -15.89996 -18.50255 38086 ft 473 kts 215°
2026-05-08 08:51 -15.95773 -18.53499 38089 ft 472 kts 215°
2026-05-08 08:51 -16.01560 -18.56751 38089 ft 472 kts 215°
2026-05-08 08:52 -16.07340 -18.60001 38086 ft 472 kts 215°
2026-05-08 08:52 -16.13116 -18.63251 38086 ft 472 kts 215°
2026-05-08 08:53 -16.18889 -18.66501 38086 ft 472 kts 215°
2026-05-08 08:53 -16.24671 -18.69758 38090 ft 472 kts 215°
2026-05-08 08:54 -16.30432 -18.73005 38093 ft 472 kts 215°
2026-05-08 08:54 -16.36204 -18.76261 38098 ft 472 kts 215°
2026-05-08 08:55 -16.41975 -18.79519 38093 ft 472 kts 215°
2026-05-08 08:55 -16.47748 -18.82780 38096 ft 472 kts 215°
2026-05-08 08:56 -16.53521 -18.86043 38103 ft 472 kts 216°
2026-05-08 08:56 -16.59282 -18.89301 38099 ft 471 kts 216°
2026-05-08 08:57 -16.65035 -18.92558 38100 ft 470 kts 216°
2026-05-08 08:57 -16.70822 -18.95836 38105 ft 470 kts 216°
2026-05-08 08:58 -16.76580 -18.99100 38099 ft 471 kts 216°
2026-05-08 08:58 -16.82333 -19.02363 38100 ft 470 kts 216°
2026-05-08 08:59 -16.88064 -19.05616 38109 ft 470 kts 216°
2026-05-08 08:59 -16.93807 -19.08878 38108 ft 470 kts 216°
2026-05-08 09:00 -16.99551 -19.12144 38117 ft 470 kts 216°
2026-05-08 09:00 -17.05295 -19.15412 38114 ft 470 kts 216°
2026-05-08 09:01 -17.11044 -19.18683 38113 ft 470 kts 216°
2026-05-08 09:01 -17.16790 -19.21955 38118 ft 470 kts 216°
2026-05-08 09:02 -17.22525 -19.25223 38115 ft 469 kts 216°
2026-05-08 09:02 -17.28209 -19.28466 38115 ft 469 kts 216°
2026-05-08 09:03 -17.33935 -19.31735 38123 ft 469 kts 216°
2026-05-08 09:03 -17.39656 -19.35004 38121 ft 469 kts 216°
2026-05-08 09:04 -17.45383 -19.38277 38118 ft 469 kts 216°
2026-05-08 09:04 -17.51103 -19.41549 38126 ft 468 kts 216°
2026-05-08 09:05 -17.56819 -19.44821 38124 ft 468 kts 216°
2026-05-08 09:05 -17.62526 -19.48091 38126 ft 468 kts 216°
2026-05-08 09:06 -17.68249 -19.51373 38129 ft 469 kts 216°
2026-05-08 09:06 -17.73964 -19.54651 38131 ft 469 kts 216°
2026-05-08 09:07 -17.79686 -19.57936 38132 ft 468 kts 216°
2026-05-08 09:07 -17.85404 -19.61222 38127 ft 468 kts 216°
2026-05-08 09:08 -17.91118 -19.64507 38125 ft 468 kts 216°
2026-05-08 09:08 -17.96833 -19.67795 38131 ft 468 kts 216°
2026-05-08 09:09 -18.02547 -19.71086 38132 ft 468 kts 216°
2026-05-08 09:09 -18.08266 -19.74382 38144 ft 468 kts 217°
2026-05-08 09:10 -18.13963 -19.77665 38138 ft 466 kts 217°
2026-05-08 09:10 -18.19634 -19.80937 38138 ft 465 kts 217°
2026-05-08 09:11 -18.25310 -19.84218 38141 ft 466 kts 217°
2026-05-08 09:11 -18.30986 -19.87500 38139 ft 466 kts 217°
2026-05-08 09:12 -18.36667 -19.90786 38142 ft 466 kts 217°
2026-05-08 09:12 -18.42301 -19.94046 38144 ft 465 kts 217°
2026-05-08 09:13 -18.47964 -19.97326 38143 ft 464 kts 217°
2026-05-08 09:13 -18.53617 -20.00604 38145 ft 464 kts 217°
2026-05-08 09:14 -18.59279 -20.03890 38145 ft 464 kts 217°
2026-05-08 09:14 -18.64936 -20.07175 38145 ft 464 kts 217°
2026-05-08 09:15 -18.70593 -20.10461 38154 ft 464 kts 217°
2026-05-08 09:15 -18.76239 -20.13744 38155 ft 463 kts 217°
2026-05-08 09:16 -18.81885 -20.17030 38151 ft 463 kts 217°
2026-05-08 09:16 -18.87532 -20.20320 38150 ft 464 kts 217°
2026-05-08 09:17 -18.93177 -20.23610 38155 ft 464 kts 217°
2026-05-08 09:17 -18.98824 -20.26904 38170 ft 464 kts 218°
2026-05-08 09:18 -19.04467 -20.30198 38175 ft 463 kts 218°
2026-05-08 09:18 -19.10101 -20.33490 38160 ft 462 kts 218°
2026-05-08 09:19 -19.15729 -20.36781 38163 ft 462 kts 218°
2026-05-08 09:19 -19.21360 -20.40076 38162 ft 462 kts 218°
2026-05-08 09:20 -19.26983 -20.43369 38162 ft 462 kts 218°
2026-05-08 09:20 -19.32566 -20.46641 38160 ft 461 kts 218°
2026-05-08 09:21 -19.38219 -20.49956 38168 ft 461 kts 218°
2026-05-08 09:23 -19.57885 -20.61514 38175 ft 462 kts 219°
2026-05-08 09:23 -19.63501 -20.64819 38170 ft 462 kts 219°
2026-05-08 09:24 -19.69113 -20.68126 38171 ft 462 kts 219°
2026-05-08 09:24 -19.74731 -20.71439 38170 ft 462 kts 219°
2026-05-08 09:25 -19.80344 -20.74751 38174 ft 462 kts 219°
2026-05-08 09:25 -19.84937 -20.77596 38176 ft 454 kts 224°
2026-05-08 09:26 -19.90076 -20.81460 38189 ft 452 kts 226°
2026-05-08 09:26 -19.95129 -20.85415 38182 ft 451 kts 227°
2026-05-08 09:27 -20.00174 -20.89400 38176 ft 451 kts 227°
2026-05-08 09:27 -20.05217 -20.93375 38182 ft 451 kts 227°
2026-05-08 09:28 -20.10265 -20.97347 38184 ft 451 kts 227°
2026-05-08 09:28 -20.15309 -21.01317 38187 ft 451 kts 227°
2026-05-08 09:29 -20.20358 -21.05292 38190 ft 451 kts 227°
2026-05-08 09:29 -20.25360 -21.09234 38174 ft 450 kts 227°
2026-05-08 09:30 -20.30392 -21.13205 38200 ft 450 kts 227°
2026-05-08 09:30 -20.35428 -21.17183 38187 ft 451 kts 227°
2026-05-08 09:31 -20.40468 -21.21168 38185 ft 451 kts 227°
2026-05-08 09:31 -20.45515 -21.25159 38214 ft 452 kts 227°
2026-05-08 09:32 -20.50553 -21.29144 38195 ft 450 kts 227°
2026-05-08 09:32 -20.55568 -21.33116 38196 ft 449 kts 227°
2026-05-08 09:33 -20.60582 -21.37094 38194 ft 449 kts 227°
2026-05-08 09:33 -20.65597 -21.41075 38197 ft 449 kts 227°
2026-05-08 09:34 -20.70612 -21.45059 38202 ft 449 kts 227°
2026-05-08 09:34 -20.75624 -21.49043 38201 ft 450 kts 227°
2026-05-08 09:35 -20.80645 -21.53039 38199 ft 450 kts 227°
2026-05-08 09:35 -20.85667 -21.57037 38201 ft 450 kts 227°
2026-05-08 09:36 -20.90684 -21.61035 38209 ft 450 kts 227°
2026-05-08 09:36 -20.95704 -21.65039 38205 ft 450 kts 227°
2026-05-08 09:37 -21.00720 -21.69043 38209 ft 450 kts 227°
2026-05-08 09:37 -21.05734 -21.73049 38210 ft 449 kts 228°
2026-05-08 09:38 -21.10740 -21.77052 38210 ft 449 kts 228°
2026-05-08 09:38 -21.15743 -21.81057 38219 ft 449 kts 228°
2026-05-08 09:39 -21.20750 -21.85070 38210 ft 451 kts 228°
2026-05-08 09:39 -21.25779 -21.89103 38210 ft 451 kts 228°
2026-05-08 09:40 -21.30801 -21.93132 38214 ft 451 kts 228°
2026-05-08 09:40 -21.35815 -21.97157 38219 ft 450 kts 228°
2026-05-08 09:41 -21.40823 -22.01183 38219 ft 450 kts 228°
2026-05-08 09:41 -21.45835 -22.05217 38222 ft 450 kts 228°
2026-05-08 09:42 -21.50841 -22.09249 38222 ft 450 kts 228°
2026-05-08 09:42 -21.55847 -22.13284 38222 ft 450 kts 228°
2026-05-08 09:43 -21.60817 -22.17292 38222 ft 449 kts 228°
2026-05-08 09:43 -21.65803 -22.21317 38225 ft 448 kts 228°
2026-05-08 09:44 -21.70778 -22.25338 38227 ft 448 kts 228°
2026-05-08 09:44 -21.75762 -22.29371 38227 ft 448 kts 228°
2026-05-08 09:45 -21.80747 -22.33407 38230 ft 448 kts 228°
2026-05-08 09:45 -21.85732 -22.37447 38235 ft 448 kts 228°
2026-05-08 09:46 -21.90708 -22.41482 38232 ft 448 kts 228°
2026-05-08 09:46 -21.95684 -22.45521 38233 ft 448 kts 228°
2026-05-08 09:47 -22.00658 -22.49564 38239 ft 449 kts 228°
2026-05-08 09:47 -22.05645 -22.53620 38236 ft 449 kts 228°
2026-05-08 09:48 -22.10634 -22.57680 38239 ft 449 kts 228°
2026-05-08 09:48 -22.15619 -22.61740 38238 ft 449 kts 228°
2026-05-08 09:49 -22.20599 -22.65800 38238 ft 448 kts 228°
2026-05-08 09:49 -22.25576 -22.69862 38241 ft 448 kts 228°
2026-05-08 09:50 -22.30551 -22.73927 38242 ft 448 kts 228°
2026-05-08 09:50 -22.35526 -22.77996 38244 ft 449 kts 228°
2026-05-08 09:51 -22.40505 -22.82071 38247 ft 449 kts 228°
2026-05-08 09:51 -22.45487 -22.86154 38246 ft 450 kts 228°
2026-05-08 09:52 -22.50478 -22.90246 38244 ft 450 kts 228°
2026-05-08 09:52 -22.55462 -22.94336 38249 ft 450 kts 228°
2026-05-08 09:53 -22.60442 -22.98426 38246 ft 450 kts 228°
2026-05-08 09:53 -22.65423 -23.02523 38266 ft 450 kts 227°
2026-05-08 09:54 -22.70404 -23.06622 38246 ft 449 kts 227°
2026-05-08 09:54 -22.75377 -23.10718 38263 ft 449 kts 227°
2026-05-08 09:55 -22.80350 -23.14821 38253 ft 451 kts 227°
2026-05-08 09:55 -22.85344 -23.18944 38253 ft 451 kts 227°
2026-05-08 09:56 -22.90334 -23.23064 38256 ft 451 kts 227°
2026-05-08 09:56 -22.95325 -23.27191 38254 ft 451 kts 226°
2026-05-08 09:57 -23.02826 -23.33401 38253 ft 452 kts 226°
2026-05-08 09:57 -23.07829 -23.37547 38256 ft 452 kts 226°
2026-05-08 09:58 -23.12827 -23.41693 38258 ft 452 kts 226°
2026-05-08 09:58 -23.17821 -23.45842 38268 ft 453 kts 225°
2026-05-08 09:59 -23.22829 -23.50007 38263 ft 453 kts 224°
2026-05-08 09:59 -23.27835 -23.54171 38263 ft 453 kts 224°
2026-05-08 10:00 -23.32845 -23.58343 38265 ft 453 kts 224°
2026-05-08 10:00 -23.37849 -23.62514 38265 ft 453 kts 224°
2026-05-08 10:01 -23.42857 -23.66693 38265 ft 453 kts 224°
2026-05-08 10:01 -23.47861 -23.70874 38266 ft 453 kts 224°
2026-05-08 10:02 -23.52864 -23.75057 38269 ft 453 kts 224°
2026-05-08 10:02 -23.57868 -23.79247 38266 ft 454 kts 224°
2026-05-08 10:03 -23.62880 -23.83446 38268 ft 454 kts 224°
2026-05-08 10:03 -23.67894 -23.87650 38268 ft 454 kts 224°
2026-05-08 10:04 -23.72905 -23.91857 38270 ft 455 kts 223°
2026-05-08 10:04 -23.77920 -23.96071 38268 ft 455 kts 223°
2026-05-08 10:05 -23.82938 -24.00292 38274 ft 455 kts 223°
2026-05-08 10:05 -23.87952 -24.04513 38272 ft 455 kts 223°
2026-05-08 10:06 -23.92967 -24.08740 38274 ft 455 kts 223°
2026-05-08 10:06 -23.97987 -24.12976 38272 ft 456 kts 223°
2026-05-08 10:07 -24.03008 -24.17217 38281 ft 456 kts 223°
2026-05-08 10:07 -24.08028 -24.21460 38282 ft 456 kts 223°
2026-05-08 10:08 -24.12200 -24.24990 38285 ft 456 kts 223°
2026-05-08 10:08 -24.17217 -24.29240 38284 ft 456 kts 223°
2026-05-08 10:09 -24.22235 -24.33494 38272 ft 456 kts 222°
2026-05-08 10:09 -24.27245 -24.37746 38292 ft 455 kts 222°
2026-05-08 10:10 -24.32255 -24.42002 38281 ft 455 kts 222°
2026-05-08 10:10 -24.37264 -24.46263 38284 ft 456 kts 222°
2026-05-08 10:11 -24.42275 -24.50529 38283 ft 456 kts 222°
2026-05-08 10:11 -24.47283 -24.54796 38289 ft 456 kts 222°
2026-05-08 10:12 -24.52282 -24.59061 38287 ft 454 kts 222°
2026-05-08 10:12 -24.57269 -24.63320 38286 ft 454 kts 222°
2026-05-08 10:13 -24.62253 -24.67581 38294 ft 454 kts 222°
2026-05-08 10:13 -24.67240 -24.71849 38292 ft 454 kts 221°
2026-05-08 10:14 -24.72229 -24.76123 38294 ft 455 kts 221°
2026-05-08 10:14 -24.77212 -24.80395 38291 ft 453 kts 221°
2026-05-08 10:15 -24.82185 -24.84664 38293 ft 453 kts 221°
2026-05-08 10:15 -24.87156 -24.88936 38296 ft 453 kts 221°
2026-05-08 10:16 -24.92127 -24.93213 38294 ft 453 kts 221°
2026-05-08 10:16 -24.97093 -24.97489 38300 ft 453 kts 220°
2026-05-08 10:17 -25.02101 -25.01703 38302 ft 452 kts 218°
2026-05-08 10:17 -25.07240 -25.05717 38297 ft 453 kts 217°
2026-05-08 10:18 -25.12409 -25.09695 38302 ft 454 kts 217°
2026-05-08 10:18 -25.17577 -25.13701 38301 ft 453 kts 218°
2026-05-08 10:19 -25.22693 -25.17695 38307 ft 453 kts 217°
2026-05-08 10:20 -25.30395 -25.23724 38303 ft 453 kts 217°
2026-05-08 10:20 -25.35531 -25.27749 38306 ft 452 kts 216°
2026-05-08 10:21 -25.40664 -25.31777 38307 ft 453 kts 217°
2026-05-08 10:21 -25.45797 -25.35808 38310 ft 453 kts 217°
2026-05-08 10:22 -25.50967 -25.39872 38310 ft 452 kts 217°
2026-05-08 10:22 -25.56063 -25.43882 38308 ft 453 kts 216°
2026-05-08 10:23 -25.61192 -25.47923 38309 ft 453 kts 216°
2026-05-08 10:23 -25.66324 -25.51970 38310 ft 452 kts 216°
2026-05-08 10:24 -25.71451 -25.56017 38312 ft 453 kts 216°
2026-05-08 10:24 -25.76572 -25.60065 38310 ft 451 kts 216°
2026-05-08 10:25 -25.81692 -25.64116 38309 ft 452 kts 216°
2026-05-08 10:25 -25.86808 -25.68168 38314 ft 453 kts 216°
2026-05-08 10:26 -25.91943 -25.72240 38315 ft 453 kts 216°
2026-05-08 10:26 -25.97080 -25.76317 38313 ft 454 kts 216°
2026-05-08 10:27 -26.02215 -25.80398 38312 ft 454 kts 216°
2026-05-08 10:27 -26.07347 -25.84480 38307 ft 454 kts 216°
2026-05-08 10:28 -26.12481 -25.88569 38310 ft 454 kts 216°
2026-05-08 10:28 -26.17613 -25.92661 38313 ft 454 kts 216°
2026-05-08 10:29 -26.22745 -25.96757 38318 ft 454 kts 215°
2026-05-08 10:29 -26.27891 -26.00869 38319 ft 456 kts 215°
2026-05-08 10:30 -26.33053 -26.04998 38318 ft 456 kts 215°
2026-05-08 10:30 -26.38206 -26.09125 38323 ft 456 kts 215°
2026-05-08 10:31 -26.43358 -26.13255 38318 ft 456 kts 215°
2026-05-08 10:31 -26.48520 -26.17398 38319 ft 457 kts 215°
2026-05-08 10:32 -26.53679 -26.21544 38321 ft 458 kts 215°
2026-05-08 10:32 -26.58846 -26.25700 38318 ft 458 kts 216°
2026-05-08 10:33 -26.64019 -26.29866 38320 ft 459 kts 216°
2026-05-08 10:33 -26.69209 -26.34051 38327 ft 461 kts 216°
2026-05-08 10:34 -26.74410 -26.38249 38322 ft 461 kts 216°
2026-05-08 10:34 -26.79610 -26.42452 38323 ft 461 kts 215°
2026-05-08 10:35 -26.84809 -26.46659 38326 ft 461 kts 215°
2026-05-08 10:35 -26.90007 -26.50869 38326 ft 461 kts 215°
2026-05-08 10:36 -26.95207 -26.55086 38322 ft 461 kts 215°
2026-05-08 10:36 -27.00395 -26.59298 38322 ft 461 kts 215°
2026-05-08 10:37 -27.05589 -26.63520 38325 ft 461 kts 215°
2026-05-08 10:37 -27.10784 -26.67748 38329 ft 461 kts 216°
2026-05-08 10:38 -27.15976 -26.71978 38325 ft 462 kts 216°
2026-05-08 10:38 -27.21170 -26.76215 38325 ft 462 kts 215°
2026-05-08 10:39 -27.26370 -26.80461 38327 ft 462 kts 215°
2026-05-08 10:39 -27.31565 -26.84710 38327 ft 462 kts 215°
2026-05-08 10:40 -27.36758 -26.88960 38322 ft 462 kts 215°
2026-05-08 10:40 -27.41952 -26.93218 38331 ft 463 kts 216°
2026-05-08 10:41 -27.47152 -26.97485 38334 ft 463 kts 215°
2026-05-08 10:41 -27.52359 -27.01762 38330 ft 461 kts 216°
2026-05-08 10:42 -27.57490 -27.05984 38333 ft 454 kts 216°
2026-05-08 10:42 -27.62588 -27.10182 38329 ft 453 kts 216°
2026-05-08 10:43 -27.67682 -27.14381 38327 ft 454 kts 216°
2026-05-08 10:43 -27.72781 -27.18590 38330 ft 454 kts 216°
2026-05-08 10:44 -27.77871 -27.22795 38329 ft 453 kts 216°
2026-05-08 10:44 -27.82950 -27.26999 38329 ft 453 kts 216°
2026-05-08 10:45 -27.88040 -27.31216 38330 ft 454 kts 216°
2026-05-08 10:45 -27.93132 -27.35439 38329 ft 454 kts 216°
2026-05-08 10:46 -27.98222 -27.39665 38326 ft 454 kts 216°
2026-05-08 10:46 -28.03313 -27.43897 38327 ft 454 kts 216°
2026-05-08 10:47 -28.08406 -27.48137 38333 ft 455 kts 216°
2026-05-08 10:47 -28.13513 -27.52392 38330 ft 456 kts 216°
2026-05-08 10:48 -28.18623 -27.56656 38327 ft 456 kts 216°
2026-05-08 10:48 -28.23724 -27.60918 38330 ft 456 kts 216°
2026-05-08 10:49 -28.28827 -27.65186 38332 ft 456 kts 216°
2026-05-08 10:49 -28.33106 -27.68769 38331 ft 456 kts 216°
2026-05-08 10:50 -28.38201 -27.73040 38328 ft 456 kts 216°
2026-05-08 10:50 -28.43306 -27.77325 38329 ft 456 kts 215°
2026-05-08 10:51 -28.48403 -27.81608 38333 ft 455 kts 216°
2026-05-08 10:51 -28.53493 -27.85891 38330 ft 455 kts 215°
2026-05-08 10:52 -28.58587 -27.90182 38327 ft 456 kts 216°
2026-05-08 10:52 -28.63655 -27.94456 38330 ft 456 kts 216°
2026-05-08 10:53 -28.68751 -27.98760 38326 ft 456 kts 216°
2026-05-08 10:53 -28.73882 -28.03098 38330 ft 457 kts 216°
2026-05-08 10:54 -28.78959 -28.07396 38336 ft 457 kts 216°
2026-05-08 10:54 -28.84058 -28.11718 38328 ft 458 kts 216°
2026-05-08 10:55 -28.89165 -28.16052 38330 ft 458 kts 216°
2026-05-08 10:55 -28.94276 -28.20396 38334 ft 458 kts 216°
2026-05-08 10:56 -28.99396 -28.24752 38335 ft 460 kts 216°
2026-05-08 10:56 -29.04522 -28.29119 38331 ft 459 kts 216°
2026-05-08 10:57 -29.09682 -28.33520 38332 ft 460 kts 216°
2026-05-08 10:57 -29.17364 -28.40083 38332 ft 460 kts 216°
2026-05-08 10:58 -29.22488 -28.44468 38334 ft 460 kts 216°
2026-05-08 10:58 -29.27578 -28.48830 38340 ft 460 kts 216°
2026-05-08 10:59 -29.32731 -28.53251 38337 ft 460 kts 216°
2026-05-08 10:59 -29.37822 -28.57625 38331 ft 460 kts 216°
2026-05-08 11:00 -29.42949 -28.62034 38331 ft 460 kts 217°
2026-05-08 11:00 -29.48053 -28.66431 38337 ft 460 kts 216°
2026-05-08 11:01 -29.53213 -28.70880 38337 ft 461 kts 217°
2026-05-08 11:01 -29.58309 -28.75281 38333 ft 462 kts 217°
2026-05-08 11:02 -29.66010 -28.81941 38330 ft 462 kts 217°
2026-05-08 11:03 -29.71142 -28.86388 38336 ft 461 kts 217°
2026-05-08 11:03 -29.76271 -28.90837 38325 ft 461 kts 217°
2026-05-08 11:04 -29.81396 -28.95288 38332 ft 462 kts 217°
2026-05-08 11:04 -29.86530 -28.99753 38334 ft 462 kts 217°
2026-05-08 11:05 -29.91665 -29.04225 38330 ft 463 kts 217°
2026-05-08 11:05 -29.96795 -29.08699 38328 ft 463 kts 217°
2026-05-08 11:06 -30.01936 -29.13188 38328 ft 463 kts 217°
2026-05-08 11:06 -30.07068 -29.17675 38327 ft 463 kts 217°
2026-05-08 11:07 -30.12198 -29.22166 38327 ft 463 kts 217°
2026-05-08 11:07 -30.17331 -29.26667 38325 ft 463 kts 217°
2026-05-08 11:08 -30.22459 -29.31168 38328 ft 464 kts 217°
2026-05-08 11:08 -30.27597 -29.35685 38324 ft 464 kts 217°
2026-05-08 11:09 -30.32735 -29.40208 38322 ft 464 kts 217°
2026-05-08 11:09 -30.37902 -29.44763 38324 ft 464 kts 217°
2026-05-08 11:10 -30.43040 -29.49298 38321 ft 464 kts 217°
2026-05-08 11:10 -30.48171 -29.53832 38324 ft 464 kts 217°
2026-05-08 11:11 -30.53306 -29.58377 38323 ft 465 kts 218°
2026-05-08 11:11 -30.58450 -29.62936 38322 ft 466 kts 218°
2026-05-08 11:12 -30.63624 -29.67528 38322 ft 465 kts 217°
2026-05-08 11:12 -30.68766 -29.72098 38321 ft 465 kts 217°
2026-05-08 11:13 -30.73910 -29.76675 38320 ft 465 kts 217°
2026-05-08 11:13 -30.79045 -29.81252 38322 ft 465 kts 217°
2026-05-08 11:14 -30.84183 -29.85836 38318 ft 465 kts 218°
2026-05-08 11:14 -30.89319 -29.90426 38321 ft 466 kts 218°
2026-05-08 11:15 -30.94491 -29.95055 38318 ft 465 kts 218°
2026-05-08 11:15 -30.99622 -29.99654 38316 ft 466 kts 217°
2026-05-08 11:16 -31.04720 -30.04332 38315 ft 467 kts 218°
2026-05-08 11:16 -31.09831 -30.09096 38317 ft 467 kts 218°
2026-05-08 11:17 -31.14900 -30.13827 38319 ft 467 kts 219°
2026-05-08 11:17 -31.19972 -30.18556 38317 ft 466 kts 218°
2026-05-08 11:18 -31.25046 -30.23290 38316 ft 467 kts 218°
2026-05-08 11:18 -31.30090 -30.28000 38317 ft 467 kts 218°
2026-05-08 11:19 -31.35169 -30.32750 38317 ft 467 kts 218°
2026-05-08 11:19 -31.40282 -30.37541 38321 ft 468 kts 218°
2026-05-08 11:20 -31.45383 -30.42325 38313 ft 470 kts 218°
2026-05-08 11:20 -31.50480 -30.47113 38314 ft 470 kts 218°
2026-05-08 11:21 -31.55571 -30.51904 38310 ft 469 kts 218°
2026-05-08 11:21 -31.60667 -30.56704 38309 ft 471 kts 218°
2026-05-08 11:22 -31.65773 -30.61522 38311 ft 471 kts 218°
2026-05-08 11:22 -31.70023 -30.65537 38312 ft 471 kts 218°
2026-05-08 11:23 -31.75127 -30.70366 38312 ft 471 kts 218°
2026-05-08 11:23 -31.80232 -30.75203 38312 ft 472 kts 218°
2026-05-08 11:24 -31.85337 -30.80046 38309 ft 472 kts 218°
2026-05-08 11:24 -31.90450 -30.84905 38311 ft 472 kts 218°
2026-05-08 11:25 -31.95561 -30.89768 38307 ft 472 kts 218°
2026-05-08 11:25 -32.00657 -30.94625 38312 ft 471 kts 218°
2026-05-08 11:26 -32.05741 -30.99478 38309 ft 471 kts 218°
2026-05-08 11:26 -32.10836 -31.04348 38305 ft 472 kts 218°
2026-05-08 11:27 -32.15936 -31.09229 38303 ft 472 kts 218°
2026-05-08 11:27 -32.21017 -31.14101 38309 ft 470 kts 218°
2026-05-08 11:28 -32.26093 -31.18974 38306 ft 470 kts 218°
2026-05-08 11:28 -32.31161 -31.23847 38303 ft 470 kts 218°
2026-05-08 11:29 -32.36237 -31.28735 38300 ft 470 kts 218°
2026-05-08 11:29 -32.41301 -31.33619 38303 ft 470 kts 218°
2026-05-08 11:30 -32.46369 -31.38513 38303 ft 470 kts 218°
2026-05-08 11:30 -32.51433 -31.43412 38299 ft 470 kts 218°
2026-05-08 11:31 -32.56500 -31.48321 38303 ft 470 kts 218°
2026-05-08 11:31 -32.61562 -31.53231 38297 ft 470 kts 218°
2026-05-08 11:32 -32.66629 -31.58155 38303 ft 471 kts 218°
2026-05-08 11:32 -32.71688 -31.63077 38302 ft 471 kts 218°
2026-05-08 11:33 -32.76754 -31.68016 38300 ft 470 kts 218°
2026-05-08 11:33 -32.81813 -31.72953 38299 ft 470 kts 218°
2026-05-08 11:34 -32.86868 -31.77895 38288 ft 470 kts 218°
2026-05-08 11:34 -32.91913 -31.82834 38295 ft 469 kts 218°
2026-05-08 11:35 -32.96945 -31.87769 38294 ft 469 kts 218°
2026-05-08 11:35 -33.01964 -31.92697 38295 ft 469 kts 218°
2026-05-08 11:36 -33.06994 -31.97645 38288 ft 468 kts 218°
2026-05-08 11:36 -33.11976 -32.02553 38291 ft 467 kts 218°
2026-05-08 11:37 -33.17021 -32.07530 38287 ft 467 kts 219°
2026-05-08 11:37 -33.22037 -32.12486 38286 ft 468 kts 218°
2026-05-08 11:38 -33.27048 -32.17445 38289 ft 467 kts 219°
2026-05-08 11:38 -33.32048 -32.22400 38286 ft 467 kts 219°
2026-05-08 11:39 -33.37043 -32.27358 38291 ft 467 kts 219°
2026-05-08 11:39 -33.42042 -32.32328 38284 ft 466 kts 219°
2026-05-08 11:40 -33.46991 -32.37257 38281 ft 466 kts 219°
2026-05-08 11:40 -33.51974 -32.42226 38276 ft 466 kts 219°
2026-05-08 11:41 -33.56964 -32.47211 38275 ft 467 kts 219°
2026-05-08 11:41 -33.61942 -32.52191 38276 ft 465 kts 220°
2026-05-08 11:42 -33.66905 -32.57164 38275 ft 464 kts 220°
2026-05-08 11:42 -33.71868 -32.62143 38269 ft 466 kts 220°
2026-05-08 11:43 -33.76868 -32.67170 38270 ft 466 kts 220°
2026-05-08 11:43 -33.81818 -32.72151 38269 ft 467 kts 220°
2026-05-08 11:44 -33.86788 -32.77162 38265 ft 467 kts 220°
2026-05-08 11:44 -33.91759 -32.82182 38278 ft 466 kts 220°
2026-05-08 11:45 -33.96729 -32.87208 38263 ft 468 kts 220°
2026-05-08 11:45 -34.01710 -32.92254 38264 ft 467 kts 220°
2026-05-08 11:46 -34.06686 -32.97304 38259 ft 467 kts 220°
2026-05-08 11:46 -34.11643 -33.02341 38270 ft 467 kts 220°
2026-05-08 11:47 -34.16615 -33.07402 38256 ft 466 kts 220°
2026-05-08 11:47 -34.21579 -33.12462 38253 ft 468 kts 220°
2026-05-08 11:48 -34.26575 -33.17563 38258 ft 467 kts 220°
2026-05-08 11:48 -34.31562 -33.22664 38257 ft 470 kts 220°
2026-05-08 11:49 -34.36541 -33.27765 38247 ft 469 kts 220°
2026-05-08 11:49 -34.41525 -33.32878 38244 ft 469 kts 220°
2026-05-08 11:50 -34.46497 -33.37988 38240 ft 468 kts 220°
2026-05-08 11:50 -34.51455 -33.43091 38243 ft 467 kts 220°
2026-05-08 11:51 -34.56378 -33.48165 38238 ft 467 kts 220°
2026-05-08 11:51 -34.61311 -33.53260 38233 ft 464 kts 220°
2026-05-08 11:52 -34.66209 -33.58328 38233 ft 461 kts 220°
2026-05-08 11:52 -34.71083 -33.63378 38231 ft 462 kts 220°
2026-05-08 11:53 -34.75999 -33.68479 38235 ft 461 kts 220°
2026-05-08 11:53 -34.80827 -33.73496 38226 ft 458 kts 221°
2026-05-08 11:54 -34.85695 -33.78564 38222 ft 458 kts 221°
2026-05-08 11:54 -34.90504 -33.83579 38224 ft 458 kts 221°
2026-05-08 11:55 -34.95336 -33.88625 38220 ft 457 kts 221°
2026-05-08 11:55 -35.00153 -33.93665 38216 ft 456 kts 221°
2026-05-08 11:56 -35.04970 -33.98712 38214 ft 456 kts 221°
2026-05-08 11:56 -35.09784 -34.03764 38208 ft 456 kts 222°
2026-05-08 11:57 -35.14592 -34.08818 38209 ft 456 kts 221°
2026-05-08 11:57 -35.19394 -34.13874 38209 ft 456 kts 222°
2026-05-08 11:58 -35.24195 -34.18938 38205 ft 456 kts 223°
2026-05-08 11:58 -35.28988 -34.24000 38203 ft 455 kts 221°
2026-05-08 11:59 -35.36165 -34.31595 38200 ft 454 kts 223°
2026-05-08 11:59 -35.40945 -34.36664 38197 ft 454 kts 224°
2026-05-08 12:00 -35.45713 -34.41727 38200 ft 453 kts 223°
2026-05-08 12:00 -35.50479 -34.46801 38195 ft 453 kts 222°
2026-05-08 12:01 -35.55236 -34.51871 38194 ft 452 kts 223°
2026-05-08 12:01 -35.59968 -34.56920 38183 ft 449 kts 224°
2026-05-08 12:02 -35.64676 -34.61954 38183 ft 448 kts 223°
2026-05-08 12:02 -35.69385 -34.66996 38181 ft 449 kts 224°
2026-05-08 12:03 -35.74086 -34.72040 38181 ft 449 kts 223°
2026-05-08 12:03 -35.77998 -34.76243 38179 ft 449 kts 224°
2026-05-08 12:04 -35.83460 -34.82122 38179 ft 449 kts 225°
2026-05-08 12:04 -35.88154 -34.87183 38169 ft 448 kts 223°
2026-05-08 12:05 -35.92078 -34.91419 38168 ft 447 kts 225°
2026-05-08 12:05 -35.96757 -34.96478 38167 ft 447 kts 223°
2026-05-08 12:06 -36.01493 -35.01467 38170 ft 449 kts 221°
2026-05-08 12:06 -36.06492 -35.06108 38157 ft 450 kts 219°
2026-05-08 12:07 -36.11552 -35.10649 38157 ft 450 kts 220°
2026-05-08 12:07 -36.16596 -35.15225 38157 ft 450 kts 220°
2026-05-08 12:08 -36.21621 -35.19838 38147 ft 449 kts 220°
2026-05-08 12:08 -36.26593 -35.24427 38151 ft 449 kts 220°
2026-05-08 12:09 -36.31598 -35.29054 38156 ft 447 kts 220°
2026-05-08 12:09 -36.36606 -35.33689 38142 ft 446 kts 220°
2026-05-08 12:10 -36.41539 -35.38262 38137 ft 445 kts 220°
2026-05-08 12:10 -36.46499 -35.42867 38138 ft 446 kts 220°
2026-05-08 12:11 -36.51464 -35.47484 38132 ft 445 kts 220°
2026-05-08 12:11 -36.56420 -35.52100 38130 ft 445 kts 221°
2026-05-08 12:12 -36.61383 -35.56731 38137 ft 446 kts 221°
2026-05-08 12:12 -36.66350 -35.61372 38116 ft 446 kts 221°
2026-05-08 12:13 -36.71298 -35.66004 38112 ft 445 kts 221°
2026-05-08 12:13 -36.76253 -35.70650 38142 ft 445 kts 221°
2026-05-08 12:14 -36.81201 -35.75296 38111 ft 445 kts 222°
2026-05-08 12:14 -36.86144 -35.79945 38107 ft 446 kts 222°
2026-05-08 12:15 -36.91100 -35.84617 38105 ft 446 kts 222°
2026-05-08 12:15 -36.96054 -35.89293 38102 ft 446 kts 223°
2026-05-08 12:16 -37.01003 -35.93971 38100 ft 445 kts 223°
2026-05-08 12:16 -37.05944 -35.98650 38097 ft 445 kts 223°
2026-05-08 12:17 -37.10882 -36.03334 38094 ft 445 kts 223°
2026-05-08 12:17 -37.15822 -36.08029 38091 ft 446 kts 223°
2026-05-08 12:18 -37.20770 -36.12739 38088 ft 446 kts 223°
2026-05-08 12:18 -37.25708 -36.17447 38086 ft 446 kts 223°
2026-05-08 12:19 -37.30649 -36.22166 38080 ft 446 kts 223°
2026-05-08 12:19 -37.35588 -36.26891 38093 ft 446 kts 224°
2026-05-08 12:20 -37.40529 -36.31626 38074 ft 447 kts 224°
2026-05-08 12:20 -37.45479 -36.36378 38071 ft 448 kts 224°
2026-05-08 12:21 -37.50430 -36.41137 38078 ft 447 kts 224°
2026-05-08 12:21 -37.55372 -36.45897 38066 ft 447 kts 224°
2026-05-08 12:22 -37.60312 -36.50662 38066 ft 447 kts 224°
2026-05-08 12:22 -37.65251 -36.55436 38069 ft 447 kts 224°
2026-05-08 12:23 -37.70185 -36.60213 38056 ft 447 kts 224°
2026-05-08 12:23 -37.75120 -36.65000 38053 ft 447 kts 224°
2026-05-08 12:24 -37.80018 -36.69759 38053 ft 447 kts 224°
2026-05-08 12:24 -37.84949 -36.74557 38050 ft 447 kts 224°
2026-05-08 12:25 -37.89885 -36.79369 38039 ft 448 kts 224°
2026-05-08 12:25 -37.94822 -36.84190 38040 ft 448 kts 223°
2026-05-08 12:26 -37.99760 -36.89020 38032 ft 448 kts 223°
2026-05-08 12:26 -38.04694 -36.93856 38032 ft 448 kts 223°
2026-05-08 12:27 -38.09632 -36.98703 38030 ft 448 kts 223°
2026-05-08 12:27 -38.14566 -37.03555 38029 ft 449 kts 223°
2026-05-08 12:28 -38.19500 -37.08416 38007 ft 449 kts 223°
2026-05-08 12:28 -38.24433 -37.13284 38022 ft 448 kts 223°
2026-05-08 12:29 -38.29353 -37.18147 38028 ft 448 kts 223°
2026-05-08 12:29 -38.34277 -37.23024 38014 ft 448 kts 223°
2026-05-08 12:30 -38.39192 -37.27901 38005 ft 448 kts 223°
2026-05-08 12:30 -38.44106 -37.32785 38000 ft 448 kts 223°
2026-05-08 12:31 -38.49019 -37.37676 38001 ft 448 kts 223°
2026-05-08 12:31 -38.53931 -37.42576 37989 ft 448 kts 224°
2026-05-08 12:32 -38.58839 -37.47479 37996 ft 448 kts 224°
2026-05-08 12:32 -38.63748 -37.52393 37993 ft 448 kts 224°
2026-05-08 12:33 -38.68655 -37.57314 37984 ft 448 kts 224°
2026-05-08 12:33 -38.73554 -37.62235 37978 ft 448 kts 224°
2026-05-08 12:34 -38.78457 -37.67169 37972 ft 448 kts 224°
2026-05-08 12:34 -38.83356 -37.72108 37969 ft 448 kts 224°
2026-05-08 12:35 -38.88253 -37.77054 37960 ft 447 kts 224°
2026-05-08 12:35 -38.93136 -37.81994 37961 ft 447 kts 224°
2026-05-08 12:36 -38.98024 -37.86951 37955 ft 447 kts 224°
2026-05-08 12:36 -39.02878 -37.91880 37961 ft 448 kts 224°
2026-05-08 12:37 -39.07771 -37.96857 37947 ft 448 kts 224°
2026-05-08 12:37 -39.12657 -38.01837 37945 ft 448 kts 224°
2026-05-08 12:38 -39.17535 -38.06818 37948 ft 448 kts 224°
2026-05-08 12:38 -39.22425 -38.11819 37930 ft 448 kts 224°
2026-05-08 12:39 -39.27303 -38.16817 37925 ft 448 kts 224°
2026-05-08 12:39 -39.32180 -38.21825 37919 ft 448 kts 224°
2026-05-08 12:40 -39.37046 -38.26829 37912 ft 447 kts 224°
2026-05-08 12:40 -39.41910 -38.31841 37913 ft 447 kts 224°
2026-05-08 12:41 -39.46770 -38.36859 37914 ft 447 kts 225°
2026-05-08 12:41 -39.51626 -38.41881 37905 ft 447 kts 225°
2026-05-08 12:42 -39.56474 -38.46904 37900 ft 446 kts 225°
2026-05-08 12:42 -39.61319 -38.51932 37900 ft 446 kts 225°
2026-05-08 12:43 -39.66157 -38.56964 37893 ft 446 kts 225°
2026-05-08 12:43 -39.70989 -38.61999 37884 ft 445 kts 225°
2026-05-08 12:44 -39.75824 -38.67046 37885 ft 446 kts 225°
2026-05-08 12:44 -39.80656 -38.72100 37885 ft 446 kts 225°
2026-05-08 12:45 -39.85486 -38.77160 37879 ft 446 kts 225°
2026-05-08 12:45 -39.90320 -38.82234 37875 ft 446 kts 225°
2026-05-08 12:46 -39.95156 -38.87321 37862 ft 447 kts 225°
2026-05-08 12:46 -39.99958 -38.92379 37875 ft 447 kts 225°
2026-05-08 12:47 -40.04791 -38.97480 37870 ft 447 kts 225°
2026-05-08 12:47 -40.09616 -39.02583 37870 ft 447 kts 225°
2026-05-08 12:48 -40.14450 -39.07705 37844 ft 447 kts 225°
2026-05-08 12:48 -40.18497 -39.12000 37850 ft 447 kts 225°
2026-05-08 12:49 -40.23326 -39.17135 37846 ft 448 kts 226°
2026-05-08 12:49 -40.28148 -39.22270 37839 ft 446 kts 226°
2026-05-08 12:50 -40.32955 -39.27399 37834 ft 446 kts 226°
2026-05-08 12:50 -40.37732 -39.32509 37832 ft 446 kts 226°
2026-05-08 12:51 -40.44941 -39.40236 37835 ft 446 kts 226°
2026-05-08 12:52 -40.49742 -39.45394 37824 ft 446 kts 226°
2026-05-08 12:52 -40.56938 -39.53144 37816 ft 446 kts 226°
2026-05-08 12:53 -40.61767 -39.58357 37813 ft 446 kts 226°
2026-05-08 12:53 -40.66531 -39.63510 37810 ft 446 kts 226°
2026-05-08 12:54 -40.71326 -39.68707 37802 ft 446 kts 226°
2026-05-08 12:54 -40.76124 -39.73916 37797 ft 447 kts 226°
2026-05-08 12:55 -40.80927 -39.79141 37787 ft 448 kts 226°
2026-05-08 12:55 -40.85732 -39.84378 37787 ft 448 kts 226°
2026-05-08 12:56 -40.90534 -39.89622 37776 ft 448 kts 226°
2026-05-08 12:56 -40.95346 -39.94888 37784 ft 449 kts 226°
2026-05-08 12:57 -41.00157 -40.00171 37777 ft 449 kts 226°
2026-05-08 12:57 -41.04901 -40.05541 37761 ft 449 kts 227°
2026-05-08 12:58 -41.09616 -40.10965 37761 ft 449 kts 228°
2026-05-08 12:58 -41.14336 -40.16402 37761 ft 449 kts 227°
2026-05-08 12:59 -41.19058 -40.21836 37759 ft 449 kts 228°
2026-05-08 12:59 -41.23780 -40.27275 37744 ft 449 kts 228°
2026-05-08 13:00 -41.28499 -40.32721 37738 ft 449 kts 228°
2026-05-08 13:00 -41.33218 -40.38179 37734 ft 449 kts 228°
2026-05-08 13:01 -41.37933 -40.43643 37727 ft 450 kts 228°
2026-05-08 13:01 -41.42652 -40.49123 37727 ft 450 kts 228°
2026-05-08 13:02 -41.47364 -40.54606 37722 ft 450 kts 228°
2026-05-08 13:02 -41.52072 -40.60095 37717 ft 450 kts 228°
2026-05-08 13:03 -41.56782 -40.65597 37705 ft 449 kts 228°
2026-05-08 13:03 -41.61485 -40.71102 37719 ft 449 kts 229°
2026-05-08 13:04 -41.66182 -40.76611 37697 ft 448 kts 229°
2026-05-08 13:04 -41.70861 -40.82110 37694 ft 448 kts 229°
2026-05-08 13:05 -41.75538 -40.87619 37688 ft 447 kts 229°
2026-05-08 13:05 -41.80197 -40.93115 37681 ft 446 kts 229°
2026-05-08 13:06 -41.84846 -40.98614 37680 ft 445 kts 229°
2026-05-08 13:06 -41.89491 -41.04117 37672 ft 445 kts 229°
2026-05-08 13:07 -41.94130 -41.09626 37664 ft 445 kts 229°
2026-05-08 13:07 -41.98766 -41.15140 37655 ft 444 kts 229°
2026-05-08 13:08 -42.03359 -41.20616 37647 ft 444 kts 229°
2026-05-08 13:08 -42.07980 -41.26135 37653 ft 444 kts 229°
2026-05-08 13:09 -42.12595 -41.31658 37645 ft 444 kts 229°
2026-05-08 13:09 -42.17205 -41.37188 37637 ft 444 kts 229°
2026-05-08 13:10 -42.21816 -41.42729 37644 ft 444 kts 229°
2026-05-08 13:10 -42.26401 -41.48244 37705 ft 430 kts 229°
2026-05-08 13:11 -42.28577 -41.50838 37659 ft 404 kts 230°
2026-05-08 13:11 -42.30614 -41.53261 37639 ft 378 kts 230°
2026-05-08 13:11 -42.32523 -41.55538 37634 ft 354 kts 231°
2026-05-08 13:11 -42.34320 -41.57699 37628 ft 340 kts 231°
2026-05-08 13:12 -42.37789 -41.61940 37635 ft 333 kts 232°
2026-05-08 13:12 -42.41159 -41.66058 37621 ft 318 kts 232°
2026-05-08 13:13 -42.44377 -41.69969 37606 ft 307 kts 233°
2026-05-08 13:13 -42.47570 -41.73902 37324 ft 320 kts 233°
2026-05-08 13:14 -42.49209 -41.76025 36846 ft 336 kts 234°
2026-05-08 13:14 -42.50969 -41.78421 35730 ft 378 kts 233°
2026-05-08 13:14 -42.52956 -41.80953 35252 ft 403 kts 230°
2026-05-08 13:14 -42.55096 -41.83489 35217 ft 412 kts 228°
2026-05-08 13:15 -42.59503 -41.88616 35377 ft 422 kts 229°
2026-05-08 13:15 -42.61725 -41.91248 35489 ft 426 kts 229°
2026-05-08 13:15 -42.63959 -41.93934 35596 ft 431 kts 229°
2026-05-08 13:16 -42.68459 -41.99431 35780 ft 440 kts 230°
2026-05-08 13:16 -42.73043 -42.05077 35981 ft 449 kts 230°
2026-05-08 13:17 -42.77716 -42.10842 36247 ft 456 kts 230°
2026-05-08 13:17 -42.80068 -42.13741 36530 ft 456 kts 230°
2026-05-08 13:17 -42.82413 -42.16631 36902 ft 454 kts 230°
2026-05-08 13:18 -42.84747 -42.19509 37304 ft 451 kts 231°
2026-05-08 13:18 -42.87062 -42.22368 37698 ft 448 kts 231°
2026-05-08 13:18 -42.89331 -42.25175 38057 ft 445 kts 231°
2026-05-08 13:18 -42.91621 -42.28014 38378 ft 443 kts 231°
2026-05-08 13:19 -42.93897 -42.30842 38630 ft 442 kts 231°
2026-05-08 13:19 -42.96167 -42.33668 38828 ft 441 kts 231°
2026-05-08 13:19 -42.98433 -42.36492 39043 ft 441 kts 231°
2026-05-08 13:19 -43.00695 -42.39312 39249 ft 440 kts 231°
2026-05-08 13:20 -43.02954 -42.42131 39472 ft 440 kts 231°
2026-05-08 13:20 -43.05215 -42.44956 39564 ft 441 kts 231°
2026-05-08 13:20 -43.09748 -42.50630 39560 ft 442 kts 231°
2026-05-08 13:21 -43.14283 -42.56311 39559 ft 442 kts 231°
2026-05-08 13:21 -43.18817 -42.62004 39545 ft 442 kts 231°
2026-05-08 13:22 -43.23350 -42.67708 39545 ft 442 kts 231°
2026-05-08 13:22 -43.27876 -42.73415 39539 ft 442 kts 232°
2026-05-08 13:23 -43.32409 -42.79146 39531 ft 443 kts 232°
2026-05-08 13:23 -43.36948 -42.84896 39537 ft 444 kts 232°
2026-05-08 13:24 -43.41481 -42.90646 39531 ft 443 kts 232°
2026-05-08 13:24 -43.46004 -42.96398 39526 ft 443 kts 232°
2026-05-08 13:25 -43.50537 -43.02177 39515 ft 444 kts 232°
2026-05-08 13:25 -43.55068 -43.07965 39519 ft 444 kts 232°
2026-05-08 13:26 -43.59598 -43.13762 39527 ft 444 kts 232°
2026-05-08 13:26 -43.64133 -43.19581 39503 ft 446 kts 232°
2026-05-08 13:27 -43.68676 -43.25423 39495 ft 446 kts 232°
2026-05-08 13:27 -43.73213 -43.31267 39504 ft 446 kts 232°
2026-05-08 13:28 -43.77754 -43.37131 39496 ft 447 kts 232°
2026-05-08 13:28 -43.82308 -43.43026 39490 ft 448 kts 232°
2026-05-08 13:29 -43.86862 -43.48931 39486 ft 448 kts 232°
2026-05-08 13:29 -43.91417 -43.54848 39474 ft 449 kts 233°
2026-05-08 13:30 -43.95982 -43.60799 39485 ft 452 kts 233°
2026-05-08 13:30 -43.99791 -43.65771 39480 ft 452 kts 233°
2026-05-08 13:31 -44.04379 -43.71770 39470 ft 452 kts 233°
2026-05-08 13:31 -44.08959 -43.77772 39475 ft 454 kts 233°
2026-05-08 13:32 -44.13567 -43.83830 39460 ft 456 kts 233°
2026-05-08 13:32 -44.18180 -43.89903 39464 ft 456 kts 233°
2026-05-08 13:33 -44.22790 -43.95983 39474 ft 455 kts 234°
2026-05-08 13:33 -44.27380 -44.02050 39451 ft 454 kts 234°
2026-05-08 13:34 -44.31959 -44.08122 39445 ft 455 kts 234°
2026-05-08 13:34 -44.36541 -44.14213 39445 ft 455 kts 234°
2026-05-08 13:35 -44.41125 -44.20317 39449 ft 455 kts 234°
2026-05-08 13:35 -44.45703 -44.26429 39449 ft 455 kts 234°
2026-05-08 13:36 -44.50284 -44.32557 39439 ft 455 kts 234°
2026-05-08 13:36 -44.54862 -44.38694 39440 ft 455 kts 234°
2026-05-08 13:37 -44.59435 -44.44840 39432 ft 455 kts 234°
2026-05-08 13:37 -44.64000 -44.50990 39427 ft 455 kts 234°
2026-05-08 13:38 -44.68566 -44.57154 39430 ft 455 kts 234°
2026-05-08 13:38 -44.73128 -44.63328 39449 ft 456 kts 235°
2026-05-08 13:39 -44.77699 -44.69531 39426 ft 457 kts 235°
2026-05-08 13:39 -44.82270 -44.75744 39422 ft 457 kts 235°
2026-05-08 13:40 -44.86838 -44.81968 39437 ft 457 kts 235°
2026-05-08 13:40 -44.91408 -44.88212 39426 ft 458 kts 235°
2026-05-08 13:41 -44.95986 -44.94481 39425 ft 459 kts 235°
2026-05-08 13:41 -45.00543 -45.00776 39425 ft 457 kts 237°
2026-05-08 13:42 -45.04887 -45.07275 39423 ft 454 kts 239°
2026-05-08 13:42 -45.09112 -45.13822 39437 ft 453 kts 239°
2026-05-08 13:43 -45.13353 -45.20383 39445 ft 450 kts 239°
2026-05-08 13:43 -45.17593 -45.26916 39457 ft 450 kts 239°
2026-05-08 13:44 -45.21846 -45.33476 39450 ft 453 kts 239°
2026-05-08 13:44 -45.26110 -45.40058 39456 ft 453 kts 239°
2026-05-08 13:45 -45.30374 -45.46653 39457 ft 453 kts 239°
2026-05-08 13:45 -45.34637 -45.53265 39461 ft 455 kts 239°
2026-05-08 13:46 -45.38914 -45.59921 39461 ft 456 kts 239°
2026-05-08 13:46 -45.43196 -45.66593 39462 ft 457 kts 239°
2026-05-08 13:47 -45.47477 -45.73280 39487 ft 457 kts 239°
2026-05-08 13:47 -45.51760 -45.79991 39472 ft 459 kts 239°
2026-05-08 13:48 -45.56063 -45.86752 39485 ft 461 kts 239°
2026-05-08 13:48 -45.60367 -45.93522 39485 ft 461 kts 239°
2026-05-08 13:49 -45.64670 -46.00310 39484 ft 462 kts 239°
2026-05-08 13:49 -45.68990 -46.07151 39492 ft 465 kts 239°
2026-05-08 13:50 -45.73327 -46.14028 39492 ft 465 kts 239°
2026-05-08 13:50 -45.77662 -46.20915 39499 ft 465 kts 239°
2026-05-08 13:51 -45.81999 -46.27827 39501 ft 467 kts 240°
2026-05-08 13:51 -45.86341 -46.34768 39504 ft 468 kts 240°
2026-05-08 13:52 -45.90689 -46.41731 39506 ft 468 kts 240°
2026-05-08 13:52 -45.95033 -46.48705 39530 ft 469 kts 240°
2026-05-08 13:53 -45.99373 -46.55693 39525 ft 469 kts 240°
2026-05-08 13:53 -46.03684 -46.62652 39526 ft 469 kts 240°
2026-05-08 13:54 -46.08018 -46.69665 39529 ft 469 kts 240°
2026-05-08 13:54 -46.12349 -46.76691 39534 ft 469 kts 240°
2026-05-08 13:55 -46.16674 -46.83726 39534 ft 469 kts 240°
2026-05-08 13:56 -46.23158 -46.94306 39540 ft 469 kts 240°
2026-05-08 13:56 -46.27464 -47.01348 39543 ft 467 kts 240°
2026-05-08 13:57 -46.31753 -47.08391 39558 ft 467 kts 241°
2026-05-08 13:57 -46.36043 -47.15457 39540 ft 467 kts 241°
2026-05-08 13:58 -46.40330 -47.22530 39574 ft 467 kts 241°
2026-05-08 13:58 -46.44618 -47.29626 39556 ft 469 kts 241°
2026-05-08 13:59 -46.48911 -47.36745 39570 ft 469 kts 241°
2026-05-08 13:59 -46.53204 -47.43882 39570 ft 469 kts 241°
2026-05-08 14:00 -46.57494 -47.51033 39590 ft 470 kts 241°
2026-05-08 14:00 -46.61801 -47.58241 39577 ft 474 kts 241°
2026-05-08 14:01 -46.66121 -47.65480 39585 ft 474 kts 241°
2026-05-08 14:01 -46.70443 -47.72736 39587 ft 474 kts 241°
2026-05-08 14:02 -46.74757 -47.80002 39591 ft 474 kts 241°
2026-05-08 14:02 -46.79066 -47.87283 39591 ft 474 kts 241°
2026-05-08 14:03 -46.83345 -47.94531 39597 ft 474 kts 241°
2026-05-08 14:03 -46.87650 -48.01841 39626 ft 474 kts 241°
2026-05-08 14:04 -46.91952 -48.09170 39609 ft 476 kts 241°
2026-05-08 14:04 -46.96262 -48.16532 39617 ft 476 kts 241°
2026-05-08 14:05 -47.00571 -48.23907 39620 ft 476 kts 241°
2026-05-08 14:05 -47.04874 -48.31293 39619 ft 477 kts 241°
2026-05-08 14:06 -47.09178 -48.38705 39631 ft 477 kts 241°
2026-05-08 14:06 -47.13481 -48.46133 39635 ft 477 kts 242°
2026-05-08 14:07 -47.17776 -48.53567 39633 ft 477 kts 242°
2026-05-08 14:07 -47.22071 -48.61021 39639 ft 478 kts 242°
2026-05-08 14:08 -47.26362 -48.68490 39642 ft 478 kts 242°
2026-05-08 14:08 -47.30649 -48.75974 39645 ft 478 kts 242°
2026-05-08 14:09 -47.34935 -48.83474 39683 ft 478 kts 242°
2026-05-08 14:09 -47.39212 -48.90973 39672 ft 477 kts 242°
2026-05-08 14:10 -47.43470 -48.98460 39669 ft 475 kts 243°
2026-05-08 14:10 -47.47709 -49.05945 39676 ft 475 kts 243°
2026-05-08 14:11 -47.51941 -49.13440 39682 ft 475 kts 243°
2026-05-08 14:11 -47.56161 -49.20928 39680 ft 473 kts 243°
2026-05-08 14:12 -47.60367 -49.28413 39680 ft 472 kts 243°
2026-05-08 14:12 -47.64565 -49.35908 39691 ft 473 kts 243°
2026-05-08 14:13 -47.68761 -49.43417 39688 ft 473 kts 243°
2026-05-08 14:13 -47.72949 -49.50932 39697 ft 472 kts 243°
2026-05-08 14:14 -47.77139 -49.58470 39705 ft 472 kts 243°
2026-05-08 14:14 -47.81316 -49.66007 39705 ft 472 kts 243°
2026-05-08 14:15 -47.85487 -49.73552 39725 ft 472 kts 243°
2026-05-08 14:15 -47.88946 -49.79823 39736 ft 471 kts 243°
2026-05-08 14:16 -47.93104 -49.87386 39736 ft 471 kts 243°
2026-05-08 14:16 -47.97255 -49.94957 39773 ft 471 kts 243°
2026-05-08 14:17 -48.01389 -50.02535 39754 ft 469 kts 244°
2026-05-08 14:17 -48.05469 -50.10124 39754 ft 468 kts 244°
2026-05-08 14:18 -48.09533 -50.17733 39767 ft 468 kts 244°
2026-05-08 14:18 -48.13593 -50.25349 39798 ft 469 kts 244°
2026-05-08 14:19 -48.17660 -50.32993 39770 ft 469 kts 244°
2026-05-08 14:19 -48.21730 -50.40661 39782 ft 470 kts 244°
2026-05-08 14:20 -48.25796 -50.48337 39792 ft 470 kts 244°
2026-05-08 14:20 -48.29824 -50.55964 39810 ft 470 kts 244°
2026-05-08 14:21 -48.33885 -50.63686 39813 ft 472 kts 244°
2026-05-08 14:21 -48.37951 -50.71432 39831 ft 472 kts 244°
2026-05-08 14:22 -48.42012 -50.79189 39818 ft 472 kts 244°
2026-05-08 14:22 -48.46068 -50.86958 39840 ft 472 kts 244°
2026-05-08 14:23 -48.50139 -50.94778 39834 ft 471 kts 244°
2026-05-08 14:23 -48.54144 -51.02497 39843 ft 471 kts 244°
2026-05-08 14:24 -48.58175 -51.10288 39861 ft 471 kts 244°
2026-05-08 14:24 -48.62188 -51.18054 39858 ft 467 kts 244°
2026-05-08 14:25 -48.66162 -51.25780 39862 ft 465 kts 244°
2026-05-08 14:25 -48.70123 -51.33513 39869 ft 465 kts 244°
2026-05-08 14:26 -48.74080 -51.41257 39869 ft 465 kts 244°
2026-05-08 14:26 -48.78035 -51.49015 39882 ft 464 kts 244°
2026-05-08 14:27 -48.81970 -51.56746 39895 ft 462 kts 244°
2026-05-08 14:27 -48.85895 -51.64489 39898 ft 462 kts 244°
2026-05-08 14:28 -48.89809 -51.72233 39909 ft 462 kts 244°
2026-05-08 14:28 -48.93721 -51.79995 39908 ft 462 kts 243°
2026-05-08 14:29 -48.97624 -51.87759 39919 ft 461 kts 243°
2026-05-08 14:29 -49.01516 -51.95525 39930 ft 461 kts 243°
2026-05-08 14:30 -49.05404 -52.03307 39928 ft 461 kts 243°
2026-05-08 14:30 -49.09281 -52.11088 39939 ft 459 kts 242°
2026-05-08 14:31 -49.13131 -52.18829 39938 ft 456 kts 242°
2026-05-08 14:31 -49.16958 -52.26555 39936 ft 456 kts 242°
2026-05-08 14:32 -49.22689 -52.38174 39951 ft 456 kts 242°
2026-05-08 14:32 -49.26505 -52.45933 39960 ft 456 kts 242°
2026-05-08 14:33 -49.30314 -52.53700 39968 ft 456 kts 243°
2026-05-08 14:33 -49.34119 -52.61483 39973 ft 456 kts 243°
2026-05-08 14:34 -49.37918 -52.69275 40000 ft 456 kts 242°
2026-05-08 14:34 -49.41709 -52.77069 39982 ft 454 kts 242°
2026-05-08 14:35 -49.45479 -52.84845 39991 ft 453 kts 242°
2026-05-08 14:35 -49.49237 -52.92624 39990 ft 453 kts 242°
2026-05-08 14:36 -49.52988 -53.00412 39999 ft 453 kts 242°
2026-05-08 14:36 -49.56741 -53.08224 40007 ft 454 kts 241°
2026-05-08 14:37 -49.60492 -53.16056 40007 ft 454 kts 241°
2026-05-08 14:37 -49.64239 -53.23900 40015 ft 454 kts 242°
2026-05-08 14:38 -49.67980 -53.31754 40015 ft 454 kts 242°
2026-05-08 14:38 -49.71719 -53.39629 40023 ft 456 kts 241°
2026-05-08 14:39 -49.75467 -53.47552 40031 ft 457 kts 241°
2026-05-08 14:39 -49.79218 -53.55499 40041 ft 457 kts 241°
2026-05-08 14:40 -49.82961 -53.63444 40047 ft 456 kts 241°
2026-05-08 14:40 -49.86690 -53.71387 40048 ft 455 kts 240°
2026-05-08 14:41 -49.90408 -53.79341 40056 ft 455 kts 240°
2026-05-08 14:41 -49.94120 -53.87304 40063 ft 456 kts 240°
2026-05-08 14:42 -49.97828 -53.95280 40064 ft 455 kts 240°
2026-05-08 14:42 -50.01532 -54.03269 40067 ft 455 kts 240°
2026-05-08 14:43 -50.05217 -54.11241 40074 ft 453 kts 240°
2026-05-08 14:43 -50.08868 -54.19164 40094 ft 453 kts 240°
2026-05-08 14:44 -50.12535 -54.27150 40088 ft 453 kts 240°
2026-05-08 14:44 -50.16197 -54.35146 40094 ft 453 kts 239°
2026-05-08 14:45 -50.19842 -54.43128 40098 ft 451 kts 239°
2026-05-08 14:45 -50.23470 -54.51095 40094 ft 450 kts 239°
2026-05-08 14:46 -50.27088 -54.59068 40105 ft 450 kts 239°
2026-05-08 14:46 -50.30701 -54.67054 40137 ft 450 kts 239°
2026-05-08 14:47 -50.34311 -54.75061 40120 ft 450 kts 239°
2026-05-08 14:47 -50.37917 -54.83078 40127 ft 450 kts 239°
2026-05-08 14:48 -50.41518 -54.91109 40132 ft 450 kts 239°
2026-05-08 14:48 -50.45115 -54.99155 40132 ft 450 kts 239°
2026-05-08 14:49 -50.48706 -55.07209 40136 ft 450 kts 238°
2026-05-08 14:49 -50.52285 -55.15266 40140 ft 450 kts 238°
2026-05-08 14:50 -50.55862 -55.23343 40151 ft 450 kts 239°
2026-05-08 14:50 -50.59430 -55.31425 40152 ft 450 kts 239°
2026-05-08 14:51 -50.62996 -55.39526 40159 ft 450 kts 238°
2026-05-08 14:51 -50.66552 -55.47628 40154 ft 449 kts 238°
2026-05-08 14:52 -50.71880 -55.59819 40152 ft 450 kts 238°
2026-05-08 14:53 -50.75412 -55.67930 39850 ft 446 kts 238°
2026-05-08 14:53 -50.77163 -55.71956 39635 ft 444 kts 240°
2026-05-08 14:53 -50.78909 -55.75984 39407 ft 444 kts 240°
2026-05-08 14:53 -50.80652 -55.80011 39189 ft 444 kts 240°
2026-05-08 14:54 -50.82395 -55.84046 38967 ft 445 kts 238°
2026-05-08 14:54 -50.84138 -55.88083 38729 ft 444 kts 239°
2026-05-08 14:54 -50.85874 -55.92107 38333 ft 441 kts 239°
2026-05-08 14:54 -50.87598 -55.96109 37846 ft 440 kts 240°
2026-05-08 14:55 -50.89317 -56.00110 37329 ft 439 kts 240°
2026-05-08 14:55 -50.91033 -56.04111 36817 ft 439 kts 240°
2026-05-08 14:55 -50.92746 -56.08112 36289 ft 439 kts 240°
2026-05-08 14:55 -50.94462 -56.12123 35741 ft 440 kts 240°
2026-05-08 14:56 -50.96181 -56.16150 35147 ft 442 kts 240°
2026-05-08 14:56 -50.97906 -56.20198 34534 ft 444 kts 240°
2026-05-08 14:56 -50.99641 -56.24277 33840 ft 447 kts 240°
2026-05-08 14:56 -51.01383 -56.28376 33128 ft 447 kts 240°
2026-05-08 14:57 -51.03123 -56.32474 32476 ft 448 kts 240°
2026-05-08 14:57 -51.04829 -56.36499 31844 ft 447 kts 239°
2026-05-08 14:57 -51.06585 -56.40645 31397 ft 441 kts 239°
2026-05-08 14:57 -51.08288 -56.44671 30925 ft 437 kts 239°
2026-05-08 14:58 -51.09978 -56.48671 30443 ft 433 kts 239°
2026-05-08 14:58 -51.11646 -56.52624 29922 ft 428 kts 240°
2026-05-08 14:58 -51.12739 -56.55222 29593 ft 425 kts 240°
2026-05-08 14:58 -51.14374 -56.59112 29118 ft 419 kts 240°
2026-05-08 14:59 -51.15983 -56.62949 28645 ft 414 kts 239°
2026-05-08 14:59 -51.19146 -56.70504 27718 ft 405 kts 240°
2026-05-08 14:59 -51.20694 -56.74210 27261 ft 400 kts 239°
2026-05-08 15:00 -51.22228 -56.77888 26817 ft 395 kts 239°
2026-05-08 15:00 -51.23743 -56.81529 26355 ft 392 kts 238°
2026-05-08 15:00 -51.25244 -56.85140 25906 ft 388 kts 239°
2026-05-08 15:00 -51.26729 -56.88721 25457 ft 385 kts 238°
2026-05-08 15:01 -51.28195 -56.92259 25026 ft 381 kts 238°
2026-05-08 15:01 -51.29648 -56.95771 24597 ft 378 kts 238°
2026-05-08 15:01 -51.31093 -56.99265 24138 ft 375 kts 237°
2026-05-08 15:01 -51.32521 -57.02726 23701 ft 372 kts 237°
2026-05-08 15:02 -51.33938 -57.06164 23237 ft 368 kts 237°
2026-05-08 15:02 -51.35334 -57.09555 22834 ft 363 kts 237°
2026-05-08 15:02 -51.36712 -57.12904 22406 ft 358 kts 237°
2026-05-08 15:02 -51.38072 -57.16213 21990 ft 354 kts 237°
2026-05-08 15:03 -51.39412 -57.19480 21585 ft 349 kts 236°
2026-05-08 15:03 -51.40739 -57.22719 21175 ft 347 kts 236°
2026-05-08 15:03 -51.42057 -57.25940 20786 ft 344 kts 236°
2026-05-08 15:03 -51.43359 -57.29127 20387 ft 341 kts 236°
2026-05-08 15:04 -51.44652 -57.32296 20002 ft 338 kts 235°
2026-05-08 15:04 -51.45931 -57.35434 19614 ft 335 kts 235°
2026-05-08 15:04 -51.47199 -57.38550 19240 ft 333 kts 235°
2026-05-08 15:04 -51.48463 -57.41658 18851 ft 332 kts 235°
2026-05-08 15:05 -51.49722 -57.44758 18468 ft 332 kts 235°
2026-05-08 15:05 -51.50986 -57.47871 18038 ft 333 kts 233°
2026-05-08 15:05 -51.52241 -57.50966 17650 ft 329 kts 235°
2026-05-08 15:05 -51.53464 -57.53993 17268 ft 327 kts 234°
2026-05-08 15:06 -51.54718 -57.57092 16883 ft 325 kts 234°
2026-05-08 15:06 -51.55950 -57.60136 16506 ft 325 kts 234°
2026-05-08 15:06 -51.57179 -57.63178 16128 ft 324 kts 233°
2026-05-08 15:06 -51.58406 -57.66217 15733 ft 323 kts 233°
2026-05-08 15:07 -51.59626 -57.69246 15349 ft 322 kts 234°
2026-05-08 15:07 -51.60823 -57.72224 14961 ft 321 kts 233°
2026-05-08 15:07 -51.62031 -57.75232 14598 ft 320 kts 233°
2026-05-08 15:07 -51.63237 -57.78239 14232 ft 319 kts 233°
2026-05-08 15:08 -51.64435 -57.81230 13826 ft 318 kts 233°
2026-05-08 15:08 -51.65631 -57.84218 13429 ft 316 kts 233°
2026-05-08 15:08 -51.66810 -57.87172 13398 ft 310 kts 233°
2026-05-08 15:08 -51.67975 -57.90092 13558 ft 306 kts 233°
2026-05-08 15:09 -51.69101 -57.92927 13380 ft 295 kts 233°
2026-05-08 15:09 -51.70202 -57.95696 13021 ft 292 kts 232°
2026-05-08 15:09 -51.71303 -57.98458 12587 ft 291 kts 233°
2026-05-08 15:09 -51.72390 -58.01187 12182 ft 290 kts 232°
2026-05-08 15:10 -51.73480 -58.03925 11706 ft 291 kts 232°
2026-05-08 15:10 -51.74569 -58.06664 11356 ft 288 kts 232°
2026-05-08 15:10 -51.75643 -58.09376 11162 ft 286 kts 232°
2026-05-08 15:10 -51.76710 -58.12072 11020 ft 286 kts 232°
2026-05-08 15:11 -51.77782 -58.14781 10673 ft 285 kts 232°
2026-05-08 15:11 -51.78845 -58.17472 10326 ft 283 kts 232°
2026-05-08 15:11 -51.79906 -58.20159 9834 ft 285 kts 232°
2026-05-08 15:11 -51.80974 -58.22864 9406 ft 284 kts 232°
2026-05-08 15:12 -51.82028 -58.25544 9015 ft 281 kts 232°
2026-05-08 15:12 -51.83059 -58.28212 8670 ft 279 kts 235°
2026-05-08 15:12 -51.83763 -58.31140 8467 ft 284 kts 252°
2026-05-08 15:12 -51.83877 -58.34355 8194 ft 291 kts 269°
2026-05-08 15:13 -51.83604 -58.37613 7825 ft 293 kts 277°
2026-05-08 15:13 -51.83106 -58.40803 7472 ft 294 kts 287°
2026-05-08 15:13 -51.82141 -58.43680 7319 ft 288 kts 300°
2026-05-08 15:13 -51.81037 -58.46319 7179 ft 279 kts 302°
2026-05-08 15:14 -51.79931 -58.48902 6787 ft 281 kts 302°
2026-05-08 15:14 -51.78825 -58.51490 6548 ft 277 kts 302°
2026-05-08 15:14 -51.77751 -58.54009 6425 ft 268 kts 302°
2026-05-08 15:14 -51.76708 -58.56464 6256 ft 263 kts 301°
2026-05-08 15:15 -51.75680 -58.58887 5939 ft 260 kts 302°
2026-05-08 15:15 -51.74658 -58.61300 5550 ft 261 kts 302°
2026-05-08 15:15 -51.73639 -58.63708 5168 ft 259 kts 302°
2026-05-08 15:15 -51.72625 -58.66100 4705 ft 258 kts 302°
2026-05-08 15:16 -51.71609 -58.68489 4239 ft 257 kts 302°
2026-05-08 15:16 -51.70642 -58.70852 3936 ft 254 kts 296°
2026-05-08 15:16 -51.70138 -58.73479 3750 ft 238 kts 266°
2026-05-08 15:16 -51.70456 -58.75946 3632 ft 216 kts 235°
2026-05-08 15:17 -51.71362 -58.77731 3343 ft 201 kts 208°
2026-05-08 15:17 -51.72574 -58.78682 3095 ft 191 kts 191°
2026-05-08 15:17 -51.73854 -58.79077 2900 ft 184 kts 176°
2026-05-08 15:17 -51.75089 -58.78753 2659 ft 179 kts 156°
2026-05-08 15:18 -51.76124 -58.77720 2597 ft 175 kts 137°
2026-05-08 15:18 -51.76842 -58.76136 2594 ft 177 kts 118°
2026-05-08 15:18 -51.77254 -58.74258 2596 ft 174 kts 111°
2026-05-08 15:18 -51.77552 -58.72462 2612 ft 158 kts 110°
2026-05-08 15:19 -51.77816 -58.70817 2602 ft 147 kts 111°
2026-05-08 15:19 -51.78080 -58.69234 2590 ft 145 kts 111°
2026-05-08 15:19 -51.78347 -58.67658 2587 ft 145 kts 111°
2026-05-08 15:19 -51.78608 -58.66115 2592 ft 137 kts 112°
2026-05-08 15:20 -51.78848 -58.64678 2546 ft 130 kts 112°
2026-05-08 15:20 -51.79084 -58.63294 2358 ft 125 kts 112°
2026-05-08 15:20 -51.79303 -58.61994 2168 ft 113 kts 112°
2026-05-08 15:20 -51.79500 -58.60823 2021 ft 105 kts 114°
2026-05-08 15:21 -51.79698 -58.59685 1890 ft 106 kts 114°
2026-05-08 15:21 -51.79898 -58.58531 1734 ft 107 kts 113°
2026-05-08 15:21 -51.80097 -58.57371 1550 ft 107 kts 114°
2026-05-08 15:21 -51.80293 -58.56222 1428 ft 106 kts 114°
2026-05-08 15:22 -51.80493 -58.55064 1254 ft 108 kts 114°
2026-05-08 15:22 -51.80696 -58.53887 1116 ft 108 kts 115°
2026-05-08 15:22 -51.80896 -58.52718 975 ft 108 kts 111°
2026-05-08 15:22 -51.81092 -58.51564 831 ft 106 kts 113°
2026-05-08 15:23 -51.81287 -58.50413 705 ft 106 kts 111°
2026-05-08 15:23 -51.81484 -58.49260 531 ft 105 kts 112°
2026-05-08 15:23 -51.81665 -58.48145 356 ft 104 kts 110°
2026-05-08 15:23 -51.81862 -58.46987 270 ft 100 kts 105°
2026-05-08 15:24 -51.82000 -58.46195 260 ft 55 kts 105°
2026-05-08 15:24 -51.82089 -58.45685 265 ft 40 kts 104°
2026-05-08 15:24 -51.82152 -58.45311 268 ft 30 kts 106°
2026-05-08 15:24 -51.82203 -58.45024 267 ft 25 kts 105°
2026-05-08 15:25 -51.82247 -58.44743 265 ft 27 kts 105°
2026-05-08 15:25 -51.82296 -58.44443 265 ft 27 kts 104°
2026-05-08 15:25 -51.82292 -58.44159 267 ft 25 kts 67°
2026-05-08 15:25 -51.82296 -58.43925 265 ft 16 kts 119°
2026-05-08 15:26 -51.82341 -58.43885 268 ft 7 kts 172°
2026-05-08 15:26 -51.82370 -58.43909 268 ft 6 kts 228°
2026-05-08 15:26 -51.82368 -58.44003 268 ft 12 kts 287°
2026-05-08 15:26 -51.82333 -58.44183 267 ft 21 kts 288°
2026-05-08 15:27 -51.82281 -58.44450 265 ft 28 kts 281°
2026-05-08 15:27 -51.82233 -58.44801 266 ft 35 kts 285°
2026-05-08 15:27 -51.82167 -58.45182 268 ft 35 kts 285°
2026-05-08 15:27 -51.82102 -58.45575 266 ft 37 kts 284°
2026-05-08 15:28 -51.82033 -58.45992 261 ft 39 kts 286°
2026-05-08 15:28 -51.82005 -58.46289 261 ft 17 kts 245°
2026-05-08 15:28 -51.82061 -58.46452 262 ft 17 kts 240°
2026-05-08 15:28 -51.82134 -58.46581 263 ft 14 kts 201°
2026-05-08 15:29 -51.82218 -58.46632 263 ft 10 kts 209°
2026-05-08 15:29 -51.82226 -58.46703 264 ft 5 kts 286°
2026-05-08 15:29 -51.82217 -58.46756 264 ft 4 kts 286°
2026-05-08 15:29 -51.82210 -58.46794 264 ft 0 kts 286°